Location: Drocourt
(49.0571°N, 1.7669°E)
Time: 16:23:52
(UTC+00:00)

Vanguard 3 - Pass Details

Date: 18 April 2024
Orbit: 509 x 3233 km, 33.3° (Epoch: 23 May)

Event Time Altitude Azimuth Distance (km) Brightness Sun altitude
Rises 05:47:30 0° 239° (WSW) 5,597 10.8 7.5°
Reaches altitude 10° 05:52:40 10° 228° (SW) 4,058 10.3 8.4°
Maximum altitude 05:59:56 23° 182° (S) 2,381 9.5 9.5°
Drops below altitude 10° 06:04:54 10° 131° (SE) 2,658 10.6 10.4°
Sets 06:07:29 0° 116° (ESE) 3,314 11.4 10.8°
